RADUGA 29 [-]

Last updated on Nov. 12, 2019, 4:19 a.m. UTC

1 22557U 93013A   19315.87664146 -.00000178  00000-0  00000+0 0  9994
2 22557  14.9621   4.7219 0003752  43.6225  38.5890  1.00385534 97534
UTC
Height (km)
Latitude
Longitude
Inclination
Orbital Period
UTC large
Height (km)
Speed (km/s)
/
Latitude / Longitude
Inclination (degrees)
Orbital Period (minutes)
Azimuth
Elevation
Range (km)
Doppler Factor
iOS Compass Heading
iOS Angle

Next 30 passes for location: Hong Kong

Rise time Rise Azimuth (degrees) Set time Set Azimuth (degrees) Duration Max altitude (degrees)

No matching passes for this satellites